User: anonymous   Login
Location: Asheville, NC
(35.6000°N, 82.5500°W)
Time: 04:30:04
(UTC-05:00)
Language:

UKube-1 - Orbit

View from above orbital plane
View from above orbital plane
View from above satellite
View from above satellite

Ground track
Ground track

The orbit data is extracted from the following two-line orbital elements,

1 40074U 14037F   18022.82426166  .00000308  00000-0  44455-4 0  9995
2 40074  98.3677 152.9445 0006024  69.5672 290.6196 14.83704016191743
Epoch (UTC): 22 January 2018 19:46:56
Eccentricity: 0.0006024
inclination: 98.3677°
perigee height: 613 km
apogee height: 622 km
right ascension of ascending node: 152.9445°
argument of perigee: 69.5672°
revolutions per day: 14.83704016
mean anomaly at epoch: 290.6196°
orbit number at epoch: 19174

The dashed part of the orbit path shows where the satellite is in the earth's shadow,  

DLR